**Search for your results by entering your last name OR bib number OR search by age group to compare your stats with others
Individual Search
 
Bib:
Last Name:
All Participants Search
 
Top Ten Women
PlaceNameTimePace
1.Danielle Erickson1:39:277:35/M
2.Janel Campbell1:44:277:58/M
3.Michelle Krezonoski1:44:297:59/M
4.Ashley Flores1:45:348:04/M
5.Ashley Van Beusekom1:46:118:06/M
6.Danielle Chavarria1:48:268:17/M
7.Melody Caldwell1:48:438:18/M
8.Cara Mack1:52:468:36/M
9.Lauren Smith1:56:388:54/M
10.Jenny Barton1:57:458:59/M
Top Ten Men
PlaceNameTimePace
1.Clay Emge1:21:396:14/M
2.Koby Styles1:27:046:39/M
3.Eloy Gonzalez1:27:236:40/M
4.Benjamin Drezek1:32:287:04/M
5.Seth Cooke1:32:337:04/M
6.Brodie Hall1:34:057:11/M
7.Jeff Scarella1:34:067:11/M
8.Wade Braun1:34:367:13/M
9.Michael Migues1:38:157:30/M
10.Paul Maness1:38:307:31/M
Contact us for results help

Gallery of Events

Contact Us

Address:
172 Trademark Drive
Buda, Texas 78610

Phone:
(512) 386 - 7966

Email:
info@cadencesports.com